UAE812 OMDB-OERK

Flight info

Callsign UAE812
Flight time 1h 19m
Altitude 32000
Route SENPA N571 ALPOB L768 ULADA T136 OTISU N112 GETOT Q212 ASNUM
Aircraft B77W/H-SDE1E2E3FGHIJ2J3J4J5M1RWXY/LB1D1

Departure

Time 2026-04-21 20:03
Airport Dubai International Airport (OMDB)

Arrival

Time 2026-04-21 21:22
Airport King Khalid International Airport (OERK)
Time Latitude Longitude Altitude Speed Heading
2026-04-21 19:08 25.25237 55.35644 26 ft 0 kts 211°
2026-04-21 19:46 25.25253 55.35654 31 ft 4 kts 211°
2026-04-21 19:46 25.25276 55.35670 35 ft 4 kts 211°
2026-04-21 19:46 25.25299 55.35685 32 ft 4 kts 215°
2026-04-21 19:46 25.25315 55.35705 32 ft 4 kts 259°
2026-04-21 19:47 25.25313 55.35733 31 ft 4 kts 297°
2026-04-21 19:47 25.25302 55.35753 32 ft 4 kts 302°
2026-04-21 19:47 25.25290 55.35774 31 ft 1 kts 302°
2026-04-21 19:47 25.25290 55.35775 31 ft 0 kts 302°
2026-04-21 19:50 25.25297 55.35762 32 ft 8 kts 302°
2026-04-21 19:50 25.25361 55.35648 31 ft 27 kts 302°
2026-04-21 19:51 25.25423 55.35540 29 ft 10 kts 302°
2026-04-21 19:51 25.25491 55.35420 29 ft 22 kts 302°
2026-04-21 19:51 25.25571 55.35275 29 ft 22 kts 301°
2026-04-21 19:51 25.25633 55.35168 30 ft 13 kts 315°
2026-04-21 19:52 25.25713 55.35169 31 ft 13 kts 37°
2026-04-21 19:52 25.25788 55.35229 30 ft 13 kts 32°
2026-04-21 19:52 25.25866 55.35284 31 ft 13 kts 33°
2026-04-21 19:52 25.25947 55.35336 26 ft 13 kts 30°
2026-04-21 19:53 25.25999 55.35417 28 ft 14 kts 76°
2026-04-21 19:53 25.26002 55.35520 27 ft 14 kts 101°
2026-04-21 19:53 25.25958 55.35610 27 ft 11 kts 123°
2026-04-21 19:53 25.25917 55.35680 26 ft 11 kts 123°
2026-04-21 19:54 25.25874 55.35754 26 ft 12 kts 123°
2026-04-21 19:54 25.25831 55.35828 27 ft 12 kts 123°
2026-04-21 19:54 25.25787 55.35903 27 ft 12 kts 123°
2026-04-21 19:54 25.25749 55.35980 27 ft 12 kts 120°
2026-04-21 19:55 25.25705 55.36055 27 ft 12 kts 123°
2026-04-21 19:55 25.25664 55.36131 27 ft 12 kts 120°
2026-04-21 19:55 25.25622 55.36208 28 ft 12 kts 120°
2026-04-21 19:55 25.25582 55.36285 27 ft 12 kts 120°
2026-04-21 19:56 25.25540 55.36363 27 ft 12 kts 122°
2026-04-21 19:56 25.25492 55.36440 27 ft 12 kts 123°
2026-04-21 19:56 25.25446 55.36519 27 ft 12 kts 122°
2026-04-21 19:56 25.25401 55.36598 26 ft 12 kts 122°
2026-04-21 19:57 25.25355 55.36678 26 ft 12 kts 122°
2026-04-21 19:57 25.25310 55.36757 27 ft 12 kts 122°
2026-04-21 19:57 25.25265 55.36837 26 ft 12 kts 121°
2026-04-21 19:57 25.25221 55.36918 27 ft 12 kts 121°
2026-04-21 19:58 25.25177 55.36998 27 ft 12 kts 121°
2026-04-21 19:58 25.25133 55.37079 28 ft 12 kts 121°
2026-04-21 19:58 25.25088 55.37159 28 ft 12 kts 121°
2026-04-21 19:58 25.25044 55.37240 28 ft 12 kts 121°
2026-04-21 19:59 25.25001 55.37319 28 ft 12 kts 121°
2026-04-21 19:59 25.24954 55.37398 29 ft 12 kts 124°
2026-04-21 19:59 25.24908 55.37477 28 ft 12 kts 121°
2026-04-21 19:59 25.24863 55.37560 28 ft 13 kts 121°
2026-04-21 20:00 25.24815 55.37646 28 ft 13 kts 121°
2026-04-21 20:00 25.24775 55.37717 28 ft 7 kts 121°
2026-04-21 20:00 25.24752 55.37758 28 ft 7 kts 121°
2026-04-21 20:00 25.24727 55.37804 27 ft 8 kts 121°
2026-04-21 20:01 25.24697 55.37857 30 ft 9 kts 121°
2026-04-21 20:01 25.24670 55.37917 27 ft 9 kts 103°
2026-04-21 20:01 25.24692 55.37975 28 ft 9 kts 37°
2026-04-21 20:01 25.24745 55.38010 29 ft 9 kts 29°
2026-04-21 20:02 25.24803 55.38026 30 ft 9 kts 346°
2026-04-21 20:02 25.24833 55.37985 30 ft 2 kts 302°
2026-04-21 20:02 25.24861 55.37933 30 ft 32 kts 300°
2026-04-21 20:02 25.25142 55.37421 32 ft 121 kts 301°
2026-04-21 20:03 25.25721 55.36409 134 ft 176 kts 303°
2026-04-21 20:03 25.26390 55.35220 779 ft 184 kts 303°
2026-04-21 20:03 25.27066 55.33986 1493 ft 195 kts 303°
2026-04-21 20:03 25.27795 55.32662 2051 ft 212 kts 303°
2026-04-21 20:04 25.28619 55.31178 2346 ft 243 kts 303°
2026-04-21 20:04 25.29485 55.29474 2748 ft 262 kts 291°
2026-04-21 20:04 25.29776 55.27459 3359 ft 272 kts 272°
2026-04-21 20:04 25.29872 55.25379 4225 ft 276 kts 272°
2026-04-21 20:05 25.29979 55.23229 5200 ft 277 kts 271°
2026-04-21 20:05 25.30083 55.21148 6280 ft 273 kts 272°
2026-04-21 20:05 25.30187 55.19023 7245 ft 274 kts 271°
2026-04-21 20:05 25.30289 55.16945 8182 ft 275 kts 271°
2026-04-21 20:06 25.30392 55.14839 9135 ft 275 kts 271°
2026-04-21 20:06 25.30496 55.12723 10071 ft 276 kts 271°
2026-04-21 20:06 25.30600 55.10573 10755 ft 289 kts 271°
2026-04-21 20:06 25.30711 55.08234 10999 ft 319 kts 271°
2026-04-21 20:07 25.30834 55.05672 11218 ft 349 kts 271°
2026-04-21 20:07 25.30967 55.02926 11830 ft 363 kts 271°
2026-04-21 20:07 25.31105 55.00104 12770 ft 370 kts 271°
2026-04-21 20:07 25.31246 54.97237 13735 ft 375 kts 272°
2026-04-21 20:08 25.31388 54.94337 14633 ft 379 kts 272°
2026-04-21 20:08 25.31529 54.91419 15025 ft 382 kts 272°
2026-04-21 20:08 25.31671 54.88478 15007 ft 384 kts 272°
2026-04-21 20:08 25.31812 54.85541 15013 ft 382 kts 272°
2026-04-21 20:09 25.31950 54.82655 15010 ft 381 kts 272°
2026-04-21 20:09 25.32089 54.79724 15013 ft 381 kts 272°
2026-04-21 20:09 25.32227 54.76795 15053 ft 383 kts 272°
2026-04-21 20:09 25.32366 54.73830 15790 ft 388 kts 272°
2026-04-21 20:10 25.32505 54.70844 16824 ft 389 kts 272°
2026-04-21 20:10 25.32645 54.67843 17870 ft 392 kts 273°
2026-04-21 20:10 25.32785 54.64831 18756 ft 395 kts 273°
2026-04-21 20:10 25.32926 54.61775 19519 ft 400 kts 272°
2026-04-21 20:11 25.33068 54.58683 20282 ft 406 kts 272°
2026-04-21 20:11 25.33251 54.55549 21062 ft 410 kts 275°
2026-04-21 20:11 25.33684 54.52414 21813 ft 415 kts 280°
2026-04-21 20:11 25.34403 54.49295 22553 ft 421 kts 285°
2026-04-21 20:12 25.35268 54.46181 23222 ft 427 kts 285°
2026-04-21 20:12 25.36145 54.43028 23805 ft 431 kts 285°
2026-04-21 20:12 25.37013 54.39876 24401 ft 434 kts 285°
2026-04-21 20:12 25.37888 54.36665 25028 ft 437 kts 285°
2026-04-21 20:13 25.38764 54.33430 25640 ft 440 kts 285°
2026-04-21 20:13 25.39642 54.30177 26231 ft 444 kts 285°
2026-04-21 20:13 25.40521 54.26888 26816 ft 447 kts 285°
2026-04-21 20:13 25.41359 54.23558 27368 ft 451 kts 284°
2026-04-21 20:14 25.42176 54.20198 27917 ft 454 kts 284°
2026-04-21 20:14 25.42999 54.16808 28449 ft 457 kts 284°
2026-04-21 20:14 25.43835 54.13397 28976 ft 461 kts 284°
2026-04-21 20:14 25.44681 54.09965 29435 ft 464 kts 284°
2026-04-21 20:15 25.45528 54.06515 29942 ft 465 kts 284°
2026-04-21 20:15 25.46358 54.03111 30532 ft 462 kts 284°
2026-04-21 20:15 25.47191 53.99688 31217 ft 457 kts 284°
2026-04-21 20:15 25.48011 53.96315 31769 ft 453 kts 284°
2026-04-21 20:16 25.48828 53.92946 31801 ft 453 kts 284°
2026-04-21 20:16 25.50472 53.86166 32088 ft 458 kts 284°
2026-04-21 20:16 25.51295 53.82767 32651 ft 455 kts 284°
2026-04-21 20:17 25.52109 53.79405 33301 ft 449 kts 284°
2026-04-21 20:17 25.52913 53.76081 33937 ft 444 kts 284°
2026-04-21 20:17 25.53693 53.72836 34487 ft 439 kts 284°
2026-04-21 20:17 25.54463 53.69594 35074 ft 433 kts 284°
2026-04-21 20:18 25.54968 53.67455 35438 ft 431 kts 284°
2026-04-21 20:18 25.55967 53.63220 35961 ft 429 kts 284°
2026-04-21 20:18 25.56721 53.60026 36351 ft 427 kts 284°
2026-04-21 20:18 25.57468 53.56857 36814 ft 424 kts 284°
2026-04-21 20:19 25.58211 53.53707 37275 ft 420 kts 284°
2026-04-21 20:19 25.58947 53.50585 37704 ft 418 kts 284°
2026-04-21 20:19 25.59680 53.47470 37811 ft 421 kts 284°
2026-04-21 20:20 25.61158 53.41186 37813 ft 419 kts 284°
2026-04-21 20:20 25.62629 53.34954 37818 ft 416 kts 284°
2026-04-21 20:21 25.64094 53.28764 37822 ft 415 kts 284°
2026-04-21 20:21 25.65612 53.22596 37821 ft 414 kts 287°
2026-04-21 20:22 25.67805 53.16722 37828 ft 416 kts 291°
2026-04-21 20:22 25.71243 53.07886 37826 ft 416 kts 291°
2026-04-21 20:23 25.73524 53.01971 37825 ft 417 kts 291°
2026-04-21 20:23 25.75803 52.96046 37827 ft 417 kts 291°
2026-04-21 20:24 25.78081 52.90118 37830 ft 417 kts 291°
2026-04-21 20:24 25.80341 52.84230 37830 ft 417 kts 291°
2026-04-21 20:25 25.82613 52.78300 37830 ft 417 kts 291°
2026-04-21 20:25 25.84881 52.72374 37878 ft 418 kts 291°
2026-04-21 20:26 25.86018 52.69399 38171 ft 417 kts 291°
2026-04-21 20:26 25.87146 52.66449 38574 ft 414 kts 291°
2026-04-21 20:26 25.88268 52.63512 38852 ft 413 kts 291°
2026-04-21 20:26 25.89392 52.60563 38824 ft 416 kts 291°
2026-04-21 20:27 25.91644 52.54652 38841 ft 414 kts 291°
2026-04-21 20:27 25.93877 52.48785 38840 ft 411 kts 291°
2026-04-21 20:28 25.96095 52.42948 38844 ft 409 kts 290°
2026-04-21 20:28 25.98301 52.37133 38849 ft 408 kts 290°
2026-04-21 20:29 26.00488 52.31359 38853 ft 407 kts 290°
2026-04-21 20:29 26.02587 52.25511 38849 ft 407 kts 285°
2026-04-21 20:30 26.03880 52.19391 38851 ft 407 kts 279°
2026-04-21 20:30 26.04521 52.13114 38862 ft 409 kts 276°
2026-04-21 20:31 26.05084 52.06852 38661 ft 404 kts 276°
2026-04-21 20:31 26.05365 52.03742 38361 ft 404 kts 276°
2026-04-21 20:31 26.05649 52.00627 37918 ft 405 kts 276°
2026-04-21 20:32 26.05936 51.97499 37394 ft 408 kts 276°
2026-04-21 20:32 26.06223 51.94385 36864 ft 411 kts 276°
2026-04-21 20:32 26.06520 51.91165 36346 ft 415 kts 276°
2026-04-21 20:32 26.06811 51.88006 35836 ft 417 kts 276°
2026-04-21 20:33 26.07106 51.84792 35335 ft 420 kts 276°
2026-04-21 20:33 26.07403 51.81557 34831 ft 422 kts 276°
2026-04-21 20:33 26.07702 51.78296 34318 ft 424 kts 276°
2026-04-21 20:33 26.08001 51.75023 33763 ft 427 kts 276°
2026-04-21 20:34 26.08302 51.71717 33087 ft 431 kts 276°
2026-04-21 20:34 26.08604 51.68385 32413 ft 434 kts 276°
2026-04-21 20:34 26.08909 51.65027 31910 ft 437 kts 276°
2026-04-21 20:34 26.09214 51.61646 31504 ft 440 kts 276°
2026-04-21 20:35 26.09520 51.58251 31192 ft 440 kts 276°
2026-04-21 20:35 26.09824 51.54866 30873 ft 441 kts 276°
2026-04-21 20:35 26.10432 51.48081 30839 ft 439 kts 275°
2026-04-21 20:36 26.10729 51.44748 30611 ft 438 kts 275°
2026-04-21 20:36 26.11030 51.41372 30294 ft 439 kts 275°
2026-04-21 20:36 26.11233 51.39079 30026 ft 442 kts 275°
2026-04-21 20:36 26.11533 51.35693 29881 ft 449 kts 275°
2026-04-21 20:37 26.12152 51.28670 29855 ft 463 kts 275°
2026-04-21 20:37 26.12784 51.21456 29852 ft 471 kts 275°
2026-04-21 20:38 26.13416 51.14210 29842 ft 470 kts 275°
2026-04-21 20:38 26.14043 51.06982 29844 ft 469 kts 275°
2026-04-21 20:39 26.14665 50.99756 29836 ft 468 kts 275°
2026-04-21 20:39 26.15280 50.92577 29843 ft 468 kts 275°
2026-04-21 20:40 26.15895 50.85350 29844 ft 470 kts 275°
2026-04-21 20:40 26.16508 50.78115 29850 ft 469 kts 274°
2026-04-21 20:41 26.17115 50.70897 29852 ft 467 kts 274°
2026-04-21 20:41 26.17713 50.63744 29844 ft 467 kts 274°
2026-04-21 20:42 26.18317 50.56476 29823 ft 470 kts 274°
2026-04-21 20:42 26.18913 50.49261 29826 ft 472 kts 274°
2026-04-21 20:43 26.19511 50.41978 29820 ft 473 kts 274°
2026-04-21 20:43 26.20107 50.34667 29827 ft 473 kts 274°
2026-04-21 20:44 26.20699 50.27366 29829 ft 473 kts 274°
2026-04-21 20:44 26.21288 50.20060 29830 ft 473 kts 274°
2026-04-21 20:45 26.21867 50.12823 29829 ft 472 kts 274°
2026-04-21 20:45 26.22447 50.05534 29830 ft 472 kts 274°
2026-04-21 20:46 26.23023 49.98243 29831 ft 472 kts 274°
2026-04-21 20:46 26.23595 49.90962 29830 ft 472 kts 274°
2026-04-21 20:47 26.24163 49.83677 29843 ft 472 kts 274°
2026-04-21 20:47 26.24728 49.76389 29843 ft 472 kts 274°
2026-04-21 20:48 26.25289 49.69101 29862 ft 473 kts 273°
2026-04-21 20:48 26.25847 49.61795 29836 ft 473 kts 273°
2026-04-21 20:49 26.26397 49.54555 29834 ft 472 kts 273°
2026-04-21 20:49 26.26947 49.47257 29830 ft 472 kts 273°
2026-04-21 20:50 26.27494 49.39962 29842 ft 472 kts 273°
2026-04-21 20:50 26.28036 49.32679 29846 ft 472 kts 273°
2026-04-21 20:51 26.28575 49.25384 29854 ft 471 kts 273°
2026-04-21 20:51 26.29110 49.18105 29851 ft 470 kts 273°
2026-04-21 20:52 26.29586 49.10878 29869 ft 469 kts 271°
2026-04-21 20:52 26.29269 49.03642 29880 ft 467 kts 264°
2026-04-21 20:53 26.28680 48.96449 29871 ft 466 kts 264°
2026-04-21 20:53 26.28121 48.89251 29880 ft 465 kts 265°
2026-04-21 20:54 26.27571 48.82065 29887 ft 465 kts 265°
2026-04-21 20:54 26.27017 48.74873 29886 ft 466 kts 264°
2026-04-21 20:55 26.26461 48.67721 29891 ft 467 kts 264°
2026-04-21 20:55 26.25897 48.60501 29888 ft 467 kts 264°
2026-04-21 20:56 26.25084 48.53314 29891 ft 468 kts 258°
2026-04-21 20:56 26.23290 48.46342 29899 ft 468 kts 252°
2026-04-21 20:57 26.20690 48.39683 29906 ft 469 kts 246°
2026-04-21 20:57 26.17891 48.33123 29899 ft 469 kts 246°
2026-04-21 20:58 26.15151 48.26598 29902 ft 468 kts 247°
2026-04-21 20:58 26.12231 48.20113 29889 ft 470 kts 242°
2026-04-21 20:59 26.08450 48.14152 29904 ft 473 kts 235°
2026-04-21 20:59 26.03978 48.08745 29912 ft 476 kts 230°
2026-04-21 21:00 25.99371 48.03444 29906 ft 476 kts 230°
2026-04-21 21:00 25.94787 47.98123 29909 ft 475 kts 231°
2026-04-21 21:01 25.90232 47.92811 29905 ft 474 kts 231°
2026-04-21 21:01 25.85679 47.87506 29913 ft 473 kts 230°
2026-04-21 21:02 25.81145 47.82230 29912 ft 476 kts 230°
2026-04-21 21:02 25.76585 47.76925 29903 ft 467 kts 230°
2026-04-21 21:03 25.74367 47.74349 29471 ft 457 kts 230°
2026-04-21 21:03 25.72224 47.71861 28752 ft 440 kts 230°
2026-04-21 21:03 25.70124 47.69415 28017 ft 435 kts 231°
2026-04-21 21:03 25.68201 47.66863 27307 ft 428 kts 236°
2026-04-21 21:04 25.66509 47.64176 26598 ft 423 kts 240°
2026-04-21 21:04 25.65007 47.61392 25891 ft 418 kts 245°
2026-04-21 21:04 25.63712 47.58525 25190 ft 415 kts 245°
2026-04-21 21:04 25.62428 47.55667 24480 ft 413 kts 245°
2026-04-21 21:05 25.61158 47.52854 23803 ft 412 kts 245°
2026-04-21 21:05 25.59877 47.50022 23064 ft 410 kts 245°
2026-04-21 21:05 25.58602 47.47212 22394 ft 405 kts 245°
2026-04-21 21:05 25.57341 47.44438 21697 ft 402 kts 245°
2026-04-21 21:06 25.56083 47.41676 21013 ft 399 kts 245°
2026-04-21 21:06 25.54839 47.38944 20338 ft 396 kts 245°
2026-04-21 21:06 25.53598 47.36223 19668 ft 394 kts 245°
2026-04-21 21:06 25.52367 47.33524 18985 ft 392 kts 244°
2026-04-21 21:07 25.51141 47.30839 18319 ft 390 kts 244°
2026-04-21 21:07 25.49920 47.28167 17565 ft 388 kts 244°
2026-04-21 21:07 25.48707 47.25511 16873 ft 385 kts 244°
2026-04-21 21:07 25.47526 47.22932 16255 ft 371 kts 244°
2026-04-21 21:08 25.46363 47.20390 15599 ft 369 kts 244°
2026-04-21 21:08 25.45221 47.17896 14958 ft 367 kts 244°
2026-04-21 21:08 25.44059 47.15358 14306 ft 365 kts 244°
2026-04-21 21:08 25.42943 47.12925 13745 ft 345 kts 244°
2026-04-21 21:09 25.41866 47.10578 13124 ft 341 kts 244°
2026-04-21 21:09 25.40796 47.08244 12503 ft 340 kts 243°
2026-04-21 21:09 25.39725 47.05909 11899 ft 339 kts 243°
2026-04-21 21:09 25.38656 47.03582 11307 ft 339 kts 243°
2026-04-21 21:10 25.37596 47.01274 10997 ft 331 kts 243°
2026-04-21 21:10 25.36572 46.99049 10828 ft 319 kts 243°
2026-04-21 21:10 25.35585 46.96903 10688 ft 307 kts 243°
2026-04-21 21:10 25.34663 46.94900 10553 ft 284 kts 243°
2026-04-21 21:11 25.33784 46.92991 10428 ft 274 kts 243°
2026-04-21 21:11 25.32934 46.91146 10313 ft 264 kts 243°
2026-04-21 21:11 25.32112 46.89361 10208 ft 255 kts 243°
2026-04-21 21:11 25.31319 46.87642 10104 ft 247 kts 243°
2026-04-21 21:12 25.30552 46.85979 9942 ft 241 kts 243°
2026-04-21 21:12 25.29794 46.84336 9638 ft 245 kts 242°
2026-04-21 21:12 25.29008 46.82633 9316 ft 253 kts 242°
2026-04-21 21:12 25.28202 46.80887 8974 ft 256 kts 242°
2026-04-21 21:13 25.27389 46.79126 8629 ft 257 kts 242°
2026-04-21 21:13 25.26575 46.77367 8286 ft 258 kts 242°
2026-04-21 21:13 25.25760 46.75602 7938 ft 258 kts 242°
2026-04-21 21:13 25.24943 46.73834 7606 ft 258 kts 241°
2026-04-21 21:14 25.24125 46.72067 7267 ft 259 kts 242°
2026-04-21 21:14 25.23301 46.70287 6920 ft 262 kts 241°
2026-04-21 21:14 25.22472 46.68494 6554 ft 259 kts 241°
2026-04-21 21:14 25.21688 46.66798 6277 ft 240 kts 240°
2026-04-21 21:15 25.20950 46.65201 5924 ft 228 kts 240°
2026-04-21 21:15 25.20243 46.63676 5474 ft 220 kts 240°
2026-04-21 21:15 25.19546 46.62173 4919 ft 221 kts 239°
2026-04-21 21:15 25.18823 46.60621 4356 ft 233 kts 239°
2026-04-21 21:16 25.18074 46.59009 3968 ft 237 kts 238°
2026-04-21 21:16 25.17226 46.57520 3603 ft 219 kts 219°
2026-04-21 21:16 25.15994 46.56846 3375 ft 182 kts 177°
2026-04-21 21:16 25.14829 46.57096 3380 ft 173 kts 158°
2026-04-21 21:17 25.13655 46.57504 3366 ft 177 kts 155°
2026-04-21 21:17 25.12535 46.58000 3352 ft 170 kts 153°
2026-04-21 21:17 25.11462 46.58497 3352 ft 166 kts 151°
2026-04-21 21:17 25.10428 46.59057 3357 ft 166 kts 148°
2026-04-21 21:18 25.09411 46.59670 3365 ft 168 kts 146°
2026-04-21 21:18 25.08406 46.60300 3371 ft 169 kts 146°
2026-04-21 21:18 25.07379 46.60952 3372 ft 171 kts 146°
2026-04-21 21:18 25.06346 46.61609 3368 ft 170 kts 146°
2026-04-21 21:19 25.05334 46.62252 3357 ft 166 kts 146°
2026-04-21 21:19 25.04341 46.62883 3356 ft 164 kts 146°
2026-04-21 21:19 25.03397 46.63482 3332 ft 149 kts 145°
2026-04-21 21:19 25.02535 46.64031 3294 ft 142 kts 145°
2026-04-21 21:20 25.01699 46.64563 3106 ft 136 kts 144°
2026-04-21 21:20 25.00863 46.65098 2921 ft 143 kts 146°
2026-04-21 21:20 25.00011 46.65637 2733 ft 144 kts 147°
2026-04-21 21:20 24.99130 46.66199 2565 ft 147 kts 147°
2026-04-21 21:21 24.98250 46.66755 2358 ft 144 kts 148°
2026-04-21 21:21 24.97398 46.67295 2144 ft 144 kts 148°
2026-04-21 21:21 24.96529 46.67842 2049 ft 138 kts 149°
2026-04-21 21:21 24.95804 46.68306 2043 ft 99 kts 150°
2026-04-21 21:22 24.95339 46.68601 2037 ft 55 kts 149°
2026-04-21 21:22 24.95053 46.68784 2041 ft 48 kts 150°
2026-04-21 21:22 24.94799 46.68941 2040 ft 49 kts 152°
2026-04-21 21:22 24.94508 46.69128 2039 ft 47 kts 149°
2026-04-21 21:23 24.94387 46.69272 2038 ft 22 kts 78°
2026-04-21 21:23 24.94434 46.69374 2040 ft 4 kts 58°
2026-04-21 21:23 24.94463 46.69428 2038 ft 0 kts 58°
2026-04-21 21:25 24.94475 46.69449 2041 ft 14 kts 58°
2026-04-21 21:25 24.94511 46.69517 2040 ft 8 kts 60°
2026-04-21 21:25 24.94539 46.69569 2032 ft 8 kts 60°
2026-04-21 21:26 24.94566 46.69623 2041 ft 8 kts 60°
2026-04-21 21:26 24.94596 46.69681 2039 ft 9 kts 60°
2026-04-21 21:26 24.94627 46.69742 2016 ft 9 kts 61°
2026-04-21 21:26 24.94659 46.69806 2037 ft 10 kts 61°
2026-04-21 21:27 24.94697 46.69881 2039 ft 12 kts 61°
2026-04-21 21:27 24.94725 46.69936 2040 ft 13 kts 58°
2026-04-21 21:27 24.94791 46.70059 2039 ft 15 kts 61°
2026-04-21 21:27 24.94824 46.70125 2041 ft 15 kts 61°
2026-04-21 21:28 24.94875 46.70226 2043 ft 15 kts 61°
2026-04-21 21:28 24.94927 46.70331 2042 ft 16 kts 61°
2026-04-21 21:28 24.95041 46.70535 2042 ft 16 kts 57°
2026-04-21 21:29 24.95079 46.70603 2044 ft 0 kts 60°
2026-04-21 21:29 24.95083 46.70610 2043 ft 2 kts 60°
2026-04-21 21:29 24.95106 46.70654 2043 ft 12 kts 60°
2026-04-21 21:29 24.95155 46.70748 2044 ft 11 kts 60°
2026-04-21 21:30 24.95186 46.70806 2044 ft 8 kts 60°
2026-04-21 21:30 24.95182 46.70867 2045 ft 9 kts 131°
2026-04-21 21:30 24.95102 46.70923 2045 ft 18 kts 149°
2026-04-21 21:30 24.94973 46.71007 2045 ft 21 kts 149°
2026-04-21 21:31 24.94881 46.71065 2043 ft 15 kts 150°
2026-04-21 21:31 24.94789 46.71123 2046 ft 15 kts 150°
2026-04-21 21:31 24.94696 46.71181 2046 ft 15 kts 149°
2026-04-21 21:31 24.94628 46.71225 2046 ft 1 kts 149°
2026-04-21 21:32 24.94619 46.71231 2046 ft 1 kts 149°
2026-04-21 21:32 24.94611 46.71236 2045 ft 1 kts 149°
2026-04-21 21:32 24.94602 46.71242 2042 ft 2 kts 149°
2026-04-21 21:32 24.94591 46.71249 2044 ft 2 kts 149°
2026-04-21 21:33 24.94579 46.71257 2044 ft 2 kts 149°
2026-04-21 21:33 24.94565 46.71266 2048 ft 2 kts 149°
2026-04-21 21:33 24.94551 46.71275 2046 ft 3 kts 149°
2026-04-21 21:33 24.94533 46.71276 2046 ft 3 kts 197°
2026-04-21 21:34 24.94521 46.71263 2046 ft 0 kts 234°
2026-04-21 21:34 24.94515 46.71247 2047 ft 4 kts 244°
2026-04-21 21:35 24.94514 46.71245 2046 ft 1 kts 244°
2026-04-21 21:35 24.94511 46.71240 2040 ft 1 kts 242°
2026-04-21 21:35 24.94507 46.71230 2040 ft 2 kts 242°
2026-04-21 21:35 24.94501 46.71217 2043 ft 2 kts 243°
2026-04-21 21:36 24.94492 46.71199 2047 ft 3 kts 242°
2026-04-21 21:36 24.94488 46.71190 2046 ft 0 kts 242°